Regional Weather Roundup
Issued by NWS Sioux Falls, SD

Home | Current Version | Previous Version | Text Only | Print | Product List | Glossary Off
Versions: 1 2 3 4 5 6 7 8 9 10 11 12 13 14 15 16 17 18 19 20 21 22 23 24 25 26 27 28 29 30 31 32 33 34 35 36 37 38 39 40 41 42 43 44 45 46 47 48 49 50

000
ASUS43 KFSD 282210
RWRFSD

WEATHER ROUNDUP FOR SE SOUTH DAKOTA/SW MINNESOTA/NW IOWA
NATIONAL WEATHER SERVICE SIOUX FALLS SD
500 PM CDT TUE MAR 28 2017

NOTE: "FAIR" INDICATES FEW OR NO CLOUDS BELOW 12,000 FEET WITH NO
SIGNIFICANT WEATHER AND OR OBSTRUCTIONS TO VISIBILITY.


SDZ038>040-050-052>070-282300-
SOUTHEAST SOUTH DAKOTA

CITY           SKY/WX    TMP DP  RH WIND       PRES   REMARKS
BROOKINGS      MOSUNNY   58  36  43 E12G17    30.09
CHAMBERLAIN    CLOUDY    60  37  42 E9        30.07R
HURON          SUNNY     60  34  37 E14       30.08S
MADISON        FAIR      57  37  47 E14       30.09F
MITCHELL       CLOUDY    61  36  39 E13       30.08S
SIOUX FALLS    CLOUDY    60  38  43 E13       30.08S
WINNER         LGT RAIN  50  45  83 SW3       30.08R
YANKTON        CLOUDY    57  37  47 E15       30.06S
$$

MNZ071-072-080-081-089-090-097-098-282300-
SOUTHWEST MINNESOTA

CITY           SKY/WX    TMP DP  RH WIND       PRES   REMARKS
FAIRMONT       SUNNY     59  39  47 E17       30.10S
JACKSON          N/A     59  34  38 E13       30.11S
LUVERNE        MOSUNNY   57  36  44 E12       30.10S
MARSHALL       SUNNY     61  35  37 E10G16    30.11R
MONTEVIDEO     MOSUNNY   64  36  34 SE10      30.11S
PIPESTONE      PTSUNNY   57  30  35 E9        30.09F
REDWOOD FALLS  SUNNY     62  31  31 VRB6      30.11R
TRACY          MOSUNNY   60  38  43 E13       30.11S
WINDOM         CLOUDY    61  34  36 E13       30.11S
WORTHINGTON    MOSUNNY   58  35  42 E13       30.10S
$$

IAZ001>003-012>014-020>022-031-032-NEZ013-014-SDZ071-282300-
NORTHWEST IOWA

CITY           SKY/WX    TMP DP  RH WIND       PRES   REMARKS
CHEROKEE       SUNNY     59  37  43 E12G17    30.08R
DENISON        CLOUDY    52  43  71 E14       30.09S
ESTHERVILLE    SUNNY     58  38  47 E14       30.09S
LE MARS        SUNNY     61  36  39 NE9G21    30.07R
ORANGE CITY    SUNNY     61  36  39 E10       30.07S
SHELDON        CLOUDY    59  37  44 E18       30.07S
SIOUX CITY     SUNNY     62  36  37 E16       30.04S
SPENCER        SUNNY     59  36  42 E15       30.09F
STORM LAKE     MOSUNNY   57  39  51 E14G20    30.07F
$$

ABBREVIATIONS USED IN REMARKS
   TC - TEMPERATURE IN CELSIUS
  WCI - WIND CHILL INDEX
   HX - HEAT INDEX
  VSB - VISIBILITY





USA.gov is the U.S. government's official web portal to all federal, state and local government web resources and services.